Flight Track Log - Related Links

Times and Time Zones

All times are in EDT time to prevent confusion due to time zone crossing. See the SWA38 flight status page for this flight to view local times or setup timezone preferences in your user account.

Time Position Orientation Groundspeed Altitude Reporting Facility
EDT Latitude Longitude Course Direction KTS MPH feet Rate Location/Type
Fri 04:58:57 PM 29.6247 -95.2422 123° Southeast 254 292 3,500  Level Houston Center
Fri 04:59:12 PM 29.6386 -95.2378 16° North 248 285 4,100 1,607 Climbing Houston Center
Fri 04:59:53 PM 29.6867 -95.2517 346° North 243 280 5,000 871 Climbing Houston Center
Fri 05:00:14 PM 29.7092 -95.2583 346° North 256 295 5,000 1,012 Level Houston Center
Fri 05:01:16 PM 29.7831 -95.2803 346° North 268 308 6,400 2,160 Climbing Houston Center
Fri 05:02:19 PM 29.8597 -95.3022 346° North 279 321 9,500 2,208 Climbing Houston Center
Fri 05:03:21 PM 29.9428 -95.3222 348° North 300 345 11,000 2,129 Climbing Houston Center
Fri 05:04:23 PM 30.0383 -95.3475 347° North 346 398 13,900 2,710 Climbing Houston Center
Fri 05:05:25 PM 30.1517 -95.3767 347° North 346 398 16,600 2,177 Climbing Houston Center
Fri 05:06:27 PM 30.2511 -95.4019 348° North 363 418 18,400 1,887 Climbing Houston Center
Fri 05:07:29 PM 30.3522 -95.4286 347° North 368 423 20,500 1,872 Climbing Houston Center
Fri 05:08:32 PM 30.4544 -95.4556 347° North 372 428 22,300 1,536 Climbing Houston Center
Fri 05:09:34 PM 30.5581 -95.4808 348° North 375 432 23,700 1,403 Climbing Houston Center
Fri 05:10:36 PM 30.6661 -95.5036 350° North 392 451 25,200 1,452 Climbing Houston Center
Fri 05:11:38 PM 30.7939 -95.5336 349° North 398 458 26,700 1,403 Climbing Houston Center
Fri 05:12:40 PM 30.9044 -95.5592 349° North 400 460 28,100 1,210 Climbing Houston Center
Fri 05:13:42 PM 31.0172 -95.5850 349° North 407 468 29,200 1,452 Climbing Houston Center
Fri 05:14:44 PM 31.1308 -95.6106 349° North 409 471 31,100 1,344 Climbing Houston Center
Fri 05:15:47 PM 31.2392 -95.6350 349° North 403 464 32,000 432 Climbing Houston Center
Fri 05:16:49 PM 31.3697 -95.6711 347° North 400 460 32,000 -492 Level Houston Center
Fri 05:17:49 PM 31.4517 -95.7258 330° Northwest 387 445 31,000 -1,525 Descending Fort Worth Center
Fri 05:18:51 PM 31.5458 -95.7875 331° Northwest 388 447 28,900 -2,208 Descending Fort Worth Center
Fri 05:19:54 PM 31.6497 -95.8581 330° Northwest 365 420 26,400 -2,064 Descending Fort Worth Center
Fri 05:20:56 PM 31.7306 -95.9119 330° Northwest 360 414 24,600 -1,935 Descending Fort Worth Center
Fri 05:21:58 PM 31.8217 -95.9714 331° Northwest 358 412 22,400 -2,032 Descending Fort Worth Center
Fri 05:23:00 PM 31.9053 -96.0281 330° Northwest 351 404 20,400 -1,887 Descending Fort Worth Center
Fri 05:24:02 PM 31.9867 -96.0833 330° Northwest 334 384 18,500 -1,790 Descending Fort Worth Center
Fri 05:25:04 PM 32.0639 -96.1342 331° Northwest 322 371 16,700 -1,887 Descending Fort Worth Center
Fri 05:26:06 PM 32.1525 -96.1944 330° Northwest 312 359 14,600 -1,839 Descending Fort Worth Center
Fri 05:27:08 PM 32.2306 -96.2444 332° Northwest 310 357 12,900 -1,728 Descending Fort Worth Center
Fri 05:28:11 PM 32.3158 -96.2944 334° Northwest 316 364 11,000 -1,392 Descending Fort Worth Center
Fri 05:29:13 PM 32.3908 -96.3406 333° Northwest 304 350 10,000 -968 Descending Fort Worth Center
Fri 05:30:15 PM 32.4603 -96.3825 333° Northwest 285 328 9,000 -726 Descending Fort Worth Center
Fri 05:31:17 PM 32.5356 -96.4278 333° Northwest 282 325 8,500 -726 Descending Fort Worth Center
Fri 05:32:19 PM 32.6061 -96.4714 332° Northwest 285 328 7,500 -1,016 Descending Fort Worth Center
Fri 05:33:21 PM 32.6803 -96.5172 333° Northwest 282 325 6,400 -1,016 Descending Fort Worth Center
Fri 05:34:23 PM 32.7361 -96.5764 318° Northwest 272 313 5,400 -823 Descending Fort Worth Center
Fri 05:35:25 PM 32.7919 -96.6417 316° Northwest 266 306 4,700 -677 Descending Fort Worth Center
Fri 05:36:27 PM 32.8361 -96.7108 307° West 264 304 4,000 -336 Descending Fort Worth Center
Fri 05:37:30 PM 32.8811 -96.7778 309° West 262 302 4,000 -480 Level Fort Worth Center
Fri 05:38:32 PM 32.9139 -96.8531 297° West 238 274 3,000 -871 Descending Fort Worth Center
Fri 05:39:34 PM 32.9161 -96.9183 272° West 190 219 2,200 -726 Descending Fort Worth Center
Fri 05:40:36 PM 32.8856 -96.9042 159° South 145 167 1,500 -677 Descending Fort Worth Center
Fri 05:41:38 PM 32.8603 -96.8750 136° Southeast 140 161 800 -677 Descending Fort Worth Center

Login

Don't have an account? Register now (free) for customized features, flight alerts, and more!